Flag for U.S.A. Weather past 2 weeks in Sacramento, California, U.S.A.

Now
64 °F

Clear.


Feels Like: 64 °F
Forecast: 58 / 90 °F
Wind: 10 mph from Southwest

Location: Sacramento Executive Airport

Current Time: Sep 2, 2014 at 10:40:09 PM

Latest Report: Sep 2, 2014 at 9:53 PM


Visibility: 10 mi

Pressure: 29.72 "Hg

Humidity: 78%

Dew point: 57 °F

Location of SacramentoLocation

Historic Weather in Sacramento — Graph

°F

Sacramento temperature yesterday

Maximum temperature yesterday: 101 °F (at 3:53 PM)
Minimum temperature yesterday: 61 °F (at 6:05 AM)
Average temperature yesterday: 79 °F

Past Weeks' High & Low Weather Summary

 TemperatureHumidityPressure
High101 °F (Sep 1, 3:53 PM)90% (Aug 19, 2:53 AM)30.05 "Hg (Aug 19, 2:53 AM)
Low57 °F (Aug 23, 6:53 AM)14% (Sep 1, 3:53 PM)29.68 "Hg (Sep 2, 5:53 PM)
Average73 °F57%29.85 "Hg
* Reported Aug 18 8:53 PM — Sep 2 8:53 PM, Sacramento, Weather by CustomWeather, © 2014

Note: Actual official high and low records may vary slightly from our data, if they occured in-between our weather recording intervals... More about our weather records

Advertising

Sacramento weather history for previous 24 hours

 ConditionsComfort  
Time TempWeatherWind HumidityBarometerVisibility
8:53 PM
Sep 2
66 °FClear.12 mph73%29.71 "Hg10 mi
7:53 PM70 °FSunny.10 mph64%29.69 "Hg10 mi
6:53 PM77 °FSunny.7 mph50%29.68 "Hg10 mi
5:53 PM83 °FSunny.13 mph41%29.68 "Hg10 mi
4:53 PM87 °FSunny.9 mph32%29.69 "Hg10 mi
3:53 PM88 °FSunny.8 mph33%29.71 "Hg10 mi
2:53 PM89 °FSunny.12 mph31%29.73 "Hg10 mi
1:53 PM87 °FSunny.9 mph35%29.75 "Hg10 mi
12:53 PM83 °FSunny.10 mph40%29.77 "Hg10 mi
11:53 AM82 °FSunny.10 mph44%29.78 "Hg10 mi
10:53 AM79 °FSunny.10 mph45%29.80 "Hg10 mi
9:53 AM74 °FSunny.7 mph53%29.79 "Hg10 mi
8:53 AM71 °FSunny.8 mph59%29.79 "Hg10 mi
7:53 AM67 °FSunny.6 mph68%29.78 "Hg10 mi
6:53 AM66 °FClear.8 mph68%29.76 "Hg10 mi
5:53 AM68 °FClear.6 mph61%29.75 "Hg10 mi
4:53 AM71 °FClear.6 mph51%29.74 "Hg10 mi
3:53 AM71 °FClear.5 mph49%29.73 "Hg10 mi
2:53 AM72 °FClear.3 mph49%29.72 "Hg10 mi
1:53 AM69 °FClear.3 mph57%29.72 "Hg10 mi
12:53 AM73 °FClear.3 mph48%29.73 "Hg10 mi
11:53 PM
Sep 1
73 °FClear.3 mph48%29.72 "Hg10 mi
10:53 PM77 °FClear.3 mph40%29.72 "Hg10 mi
Weather by CustomWeather, © 2014

See weather overviewHow to use our weather pages